Location: ????????
(55.6189°N, 38.3031°E)
Time: 15:26:09
(UTC+00:00)

SL-16 R/B - Pass Details

Date: 21 February 2020
Orbit: 843 x 847 km, 71.0° (Epoch: 31 March)

Event Time Altitude Azimuth Distance (km) Brightness Sun altitude
Exits shadow 02:06:32 47° 241° (WSW) 1,113 2.4 -22.1°
Maximum altitude 02:08:09 70° 308° (NW) 900 2.1 -21.8°
Drops below altitude 10° 02:13:50 10° 32° (NNE) 2,478 5.2 -21.1°
Sets 02:16:18 0° 35° (NE) 3,416 6.1 -20.7°
